Albany, NY

4:12 AM EST on November 13, 2019 (GMT -0500)
Albany International

Weather History for KALB - July, 2019

Change the Weather History Date:

Monday, July 29, 2019

  Actual Average Record
Temperature  
Mean Temperature 80 °F 72 °F  
Max Temperature 92 °F 82 °F 97 °F (1894)
Min Temperature 67 °F 62 °F 47 °F (1987)
Degree Days  
Heating Degree Days 0 0  
Month to date heating degree days 0 0  
Since 1 June heating degree days 27 52  
Since 1 July heating degree days 0 0  
Cooling Degree Days 15 7  
Month to date cooling degree days 332 200  
Year to date cooling degree days 482 348  
Since 1 June cooling degree days 460 318  
Growing Degree Days 28 (Base 50)    
Moisture  
Dew Point 67 °F    
Average Humidity 66    
Maximum Humidity 90    
Minimum Humidity 41    
Precipitation  
Precipitation 0.02 in 0.13 in 1.90 in (1974)
Month to date precipitation 3.66 3.86  
Year to date precipitation 24.53 22.43  
Sea Level Pressure  
Sea Level Pressure 29.95 in    
Wind  
Wind Speed 3 mph (SSW)    
Max Wind Speed 21 mph    
Max Gust Speed 26 mph    
Visibility 10 miles    
Events Rain , Thunderstorm    
T = Trace of Precipitation, MM = Missing Value Source: NWS Daily Summary

Daily Weather History Graph

Daily Weather History Graph

Search for Another Location

Airport or City:

Astronomy

Jul. 29, 2019 Rise Set
Actual Time 5:43 AM EDT 8:19 PM EDT
Civil Twilight 5:10 AM EDT 8:51 PM EDT
Nautical Twilight 4:30 AM EDT 9:32 PM EDT
Astronomical Twilight 3:44 AM EDT 10:17 PM EDT
Moon 2:51 AM EDT (7/29) 6:21 PM EDT (7/29)
Length of Visible Light 15h 40m
Length of Day
14h 35m
Waning Crescent, 8% of the Moon is Illuminated
Jul 29
Waning Crescent
Jul 31
New
Aug 7
First Quarter
Aug 15
Full
Aug 23
Last Quarter

Hourly Weather History & Observations

Time (EDT) Temp. Heat Index Dew Point Humidity Pressure Visibility Wind Dir Wind Speed Gust Speed Precip Events Conditions
8:51 AM 75.9 °F - 66.9 °F 74% 30.00 in 10.0 mi SSE 4.6 mph - N/A   Mostly Cloudy
9:51 AM 79.0 °F - 66.9 °F 66% 30.00 in 10.0 mi Variable 5.8 mph - N/A   Mostly Cloudy
10:51 AM 82.0 °F 84.9 °F 68.0 °F 62% 29.99 in 10.0 mi SSW 5.8 mph - N/A   Scattered Clouds
11:51 AM 84.9 °F 88.8 °F 69.1 °F 59% 29.97 in 10.0 mi SW 6.9 mph - N/A   Scattered Clouds
12:51 PM 86.0 °F 90.1 °F 69.1 °F 57% 29.96 in 10.0 mi Variable 3.5 mph - N/A   Scattered Clouds
1:51 PM 87.1 °F 89.2 °F 66.0 °F 49% 29.95 in 10.0 mi Variable 3.5 mph - N/A   Scattered Clouds
2:51 PM 90.0 °F 91.7 °F 64.9 °F 43% 29.94 in 10.0 mi WSW 6.9 mph - N/A   Scattered Clouds
3:51 PM 91.0 °F 93.0 °F 64.9 °F 42% 29.92 in 10.0 mi Variable 6.9 mph - N/A   Mostly Cloudy
4:51 PM 91.0 °F 93.8 °F 66.0 °F 44% 29.91 in 10.0 mi Calm Calm - N/A   Mostly Cloudy
5:51 PM 90.0 °F 91.7 °F 64.9 °F 43% 29.90 in 10.0 mi Calm Calm - N/A   Mostly Cloudy
6:51 PM 88.0 °F 91.4 °F 68.0 °F 51% 29.90 in 10.0 mi South 4.6 mph - N/A   Scattered Clouds
7:51 PM 86.0 °F 90.1 °F 69.1 °F 57% 29.91 in 10.0 mi South 3.5 mph - N/A   Mostly Cloudy
8:14 PM 84.9 °F 88.2 °F 68.0 °F 57% 29.92 in 10.0 mi South 12.7 mph - N/A Thunderstorm Thunderstorm
8:51 PM 81.0 °F 83.3 °F 66.9 °F 62% 29.96 in 10.0 mi WSW 12.7 mph 26.5 mph N/A Thunderstorm Thunderstorm
9:00 PM 78.1 °F - 66.0 °F 66% 29.97 in 10.0 mi WNW 17.3 mph 26.5 mph N/A Thunderstorm Thunderstorm
9:51 PM 73.9 °F - 66.0 °F 76% 29.97 in 10.0 mi SSE 4.6 mph - 0.02 in Rain , Thunderstorm Light Thunderstorms and Rain
10:07 PM 75.0 °F - 66.9 °F 76% 29.97 in 10.0 mi SSE 4.6 mph - 0.00 in   Overcast
10:51 PM 73.9 °F - 69.1 °F 85% 29.96 in 10.0 mi South 4.6 mph - 0.00 in   Mostly Cloudy
11:51 PM 72.0 °F - 68.0 °F 87% 29.96 in 10.0 mi South 3.5 mph - N/A   Mostly Cloudy